DEJRM EDRJ-EDRJ

Flight info

Callsign DEJRM
Flight time 0h 11m
Altitude
Route
Aircraft F260

Departure

Time 2026-04-17 16:48
Airport Saarlouis-Düren Airfield (EDRJ)

Arrival

Time 2026-04-17 16:59
Airport Saarlouis-Düren Airfield (EDRJ)
Time Latitude Longitude Altitude Speed Heading
2026-04-17 16:46 49.23006 7.13564 1920 ft 92 kts 151°
2026-04-17 16:46 49.22422 7.13869 1715 ft 87 kts 171°
2026-04-17 16:46 49.21823 7.13864 1501 ft 86 kts 195°
2026-04-17 16:46 49.21491 7.13230 1330 ft 82 kts 264°
2026-04-17 16:47 49.21501 7.12359 1108 ft 80 kts 264°
2026-04-17 16:47 49.21473 7.11644 1052 ft 52 kts 268°
2026-04-17 16:47 49.21443 7.10896 1092 ft 92 kts 264°
2026-04-17 16:47 49.21422 7.09874 1422 ft 103 kts 265°
2026-04-17 16:48 49.21517 7.08785 1773 ft 108 kts 296°
2026-04-17 16:48 49.22116 7.08038 2036 ft 117 kts 336°
2026-04-17 16:48 49.22913 7.07667 2316 ft 122 kts 344°
2026-04-17 16:48 49.23755 7.07305 2431 ft 129 kts 345°
2026-04-17 16:49 49.24646 7.06985 2473 ft 136 kts 349°
2026-04-17 16:49 49.25606 7.06848 2502 ft 141 kts 359°
2026-04-17 16:49 49.26611 7.06894 2488 ft 147 kts
2026-04-17 16:49 49.27625 7.06993 2568 ft 143 kts
2026-04-17 16:50 49.28620 7.07088 2585 ft 146 kts 355°
2026-04-17 16:50 49.29599 7.06728 2639 ft 145 kts 338°
2026-04-17 16:50 49.30527 7.06117 2674 ft 146 kts 335°
2026-04-17 16:50 49.31438 7.05451 2744 ft 144 kts 334°
2026-04-17 16:51 49.32331 7.04721 2740 ft 148 kts 324°
2026-04-17 16:51 49.32954 7.03474 2706 ft 153 kts 289°
2026-04-17 16:51 49.33190 7.01917 2810 ft 147 kts 280°
2026-04-17 16:51 49.33360 7.00362 2810 ft 149 kts 278°
2026-04-17 16:52 49.33464 6.98777 2833 ft 149 kts 273°
2026-04-17 16:52 49.33508 6.97184 2814 ft 152 kts 272°
2026-04-17 16:52 49.33544 6.95551 2778 ft 152 kts 272°
2026-04-17 16:52 49.33584 6.93986 2739 ft 142 kts 273°
2026-04-17 16:53 49.33588 6.92472 2569 ft 146 kts 268°
2026-04-17 16:53 49.33557 6.90930 2437 ft 144 kts 269°
2026-04-17 16:53 49.33561 6.89393 2297 ft 144 kts 272°
2026-04-17 16:53 49.33649 6.87856 2147 ft 143 kts 278°
2026-04-17 16:54 49.33907 6.86430 2136 ft 138 kts 291°
2026-04-17 16:54 49.34253 6.85066 2133 ft 138 kts 290°
2026-04-17 16:54 49.34588 6.83682 2151 ft 137 kts 291°
2026-04-17 16:54 49.34918 6.82322 2155 ft 138 kts 293°
2026-04-17 16:55 49.35297 6.80985 2176 ft 133 kts 295°
2026-04-17 16:55 49.35667 6.79722 2164 ft 129 kts 295°
2026-04-17 16:55 49.36016 6.78471 2170 ft 124 kts 295°
2026-04-17 16:55 49.36312 6.77229 2154 ft 124 kts 282°
2026-04-17 16:56 49.36219 6.75922 2143 ft 126 kts 246°
2026-04-17 16:56 49.35605 6.75054 2141 ft 121 kts 207°
2026-04-17 16:56 49.34882 6.74612 2206 ft 106 kts 202°
2026-04-17 16:56 49.34178 6.74208 2132 ft 109 kts 201°
2026-04-17 16:57 49.33473 6.73831 2108 ft 101 kts 200°
2026-04-17 16:57 49.32856 6.73456 2033 ft 94 kts 208°
2026-04-17 16:57 49.32364 6.72895 1941 ft 85 kts 234°
2026-04-17 16:57 49.32085 6.72102 1758 ft 84 kts 253°
2026-04-17 16:58 49.31912 6.71239 1616 ft 85 kts 258°
2026-04-17 16:58 49.31770 6.70370 1486 ft 83 kts 259°
2026-04-17 16:58 49.31614 6.69518 1335 ft 83 kts 257°
2026-04-17 16:58 49.31464 6.68677 1210 ft 81 kts 255°
2026-04-17 16:59 49.31321 6.67867 1112 ft 72 kts 255°
2026-04-17 16:59 49.31216 6.67292 1110 ft 44 kts 254°
2026-04-17 16:59 49.31160 6.66990 1111 ft 14 kts 261°
2026-04-17 16:59 49.31194 6.66930 1111 ft 8 kts 75°
2026-04-17 17:00 49.31195 6.66934 1111 ft 0 kts 77°
2026-04-17 17:00 49.31198 6.66951 1111 ft 5 kts 72°
2026-04-17 17:00 49.31213 6.67037 1111 ft 10 kts 76°
2026-04-17 17:01 49.31235 6.67157 1111 ft 11 kts 73°
2026-04-17 17:01 49.31268 6.67222 1110 ft 7 kts 332°
2026-04-17 17:01 49.31269 6.67178 1110 ft 0 kts 255°